Location: Newark
(52.2583°N, 7.1190°W)
Time: 00:03:13
(UTC+00:00)

S-56A Canister/Altair - Pass Details

Date: 20 November 2019
Orbit: 633 x 2499 km, 38.9° (Epoch: 06 December)

Event Time Altitude Azimuth Distance (km) Brightness Sun altitude
Rises 20:59:22 0° 261° (W) 4,229 12.0 -40.4°
Reaches altitude 10° 21:03:34 10° 244° (WSW) 2,900 10.8 -41.0°
Enters shadow 21:05:11 14° 233° (SW) 2,475 10.3 -41.2°
